This is the latest recevied weather packets stored in our database for station/object VK3XEM-13. If no packets are shown the sender has not sent any weather packets the latest 10 day(s).
| Time | Temp. | Humidity | Pressure | Rain* | Wind** | Luminosity | Snow |
|---|---|---|---|---|---|---|---|
| 1778058134 | 12.22° C | 91% | 1013.7 hPa | 7.11 mm | - | 0 W/m² | - |
| 1778057235 | 12.22° C | 89% | 1013.7 hPa | 5.33 mm | - | 0 W/m² | - |
| 1778056335 | 12.78° C | 83% | 1013.4 hPa | 1.27 mm | - | 0 W/m² | - |
| 1778055434 | 13.89° C | 73% | 1013.1 hPa | 0 mm | - | 0 W/m² | - |
| 1778054534 | 14.44° C | 68% | 1012.7 hPa | 0 mm | - | 0 W/m² | - |
| 1778053634 | 15° C | 67% | 1012.7 hPa | 0 mm | - | 0 W/m² | - |
| 1778052734 | 15° C | 64% | 1012.7 hPa | 0 mm | - | 1 W/m² | - |
| 1778051834 | 15.56° C | 63% | 1012.7 hPa | 0 mm | - | 9 W/m² | - |
| 1778050934 | 15.56° C | 62% | 1013.1 hPa | 0 mm | - | 20 W/m² | - |
| 1778050034 | 15.56° C | 62% | 1013.1 hPa | 0 mm | - | 14 W/m² | - |
| 1778049135 | 15.56° C | 61% | 1013.4 hPa | 0 mm | - | 64 W/m² | - |
| 1778048235 | 16.67° C | 59% | 1013.4 hPa | 0 mm | - | 92 W/m² | - |
| 1778047334 | 16.11° C | 61% | 1013.7 hPa | 0 mm | - | 48 W/m² | - |
| 1778046434 | 16.11° C | 60% | 1014.1 hPa | 0 mm | - | 130 W/m² | - |
| 1778045534 | 16.67° C | 59% | 1014.1 hPa | 0 mm | - | 111 W/m² | - |
| 1778044634 | 16.11° C | 62% | 1014.1 hPa | 0 mm | - | 143 W/m² | - |
| 1778043734 | 16.11° C | 60% | 1014.4 hPa | 0 mm | - | 92 W/m² | - |
| 1778042835 | 16.11° C | 60% | 1014.4 hPa | 0 mm | - | 117 W/m² | - |
| 1778041934 | 15.56° C | 61% | 1014.8 hPa | 0 mm | - | 150 W/m² | - |
| 1778041035 | 16.11° C | 60% | 1014.8 hPa | 0 mm | - | 182 W/m² | - |
| 1778040135 | 17.22° C | 57% | 1014.8 hPa | 0 mm | - | 187 W/m² | - |
| 1778039234 | 15.56° C | 61% | 1015.1 hPa | 0 mm | - | 253 W/m² | - |
| 1778038334 | 16.11° C | 60% | 1015.4 hPa | 0 mm | - | 249 W/m² | - |
| 1778037434 | 15.56° C | 61% | 1015.8 hPa | 0 mm | - | 319 W/m² | - |
| 1778036534 | 15.56° C | 62% | 1016.1 hPa | 0 mm | - | 379 W/m² | - |
* Rain latest hour (hover to see other rain measurements)
** Current wind speed in m/s (hover to see current wind gust speed)